Hourly Weather Barreiro do Jaiba

Today, 19 April, Monday

Time Temperature Precipitation Wind Pressure Humidity
00:00 +26°C° 0 mm 1 mps 716 mmHg 52%
01:00 +25°C° 0 mm 1 mps 716 mmHg 55%
02:00 +24°C° 0 mm 1 mps 716 mmHg 59%
03:00 +23°C° 0 mm 1 mps 716 mmHg 63%
04:00 +23°C° 0 mm 1 mps 716 mmHg 66%
05:00 +20°C° 0 mm 0 mps 716 mmHg 68%
06:00 +20°C° 0 mm 0 mps 716 mmHg 71%
07:00 +25°C° 0 mm 1 mps 717 mmHg 64%
08:00 +27°C° 0 mm 1 mps 718 mmHg 57%
09:00 +29°C° 0 mm 2 mps 718 mmHg 53%
10:00 +31°C° 0 mm 2 mps 718 mmHg 47%
11:00 +34°C° 0 mm 2 mps 717 mmHg 41%
12:00 +36°C° 0 mm 2 mps 717 mmHg 35%
13:00 +35°C° 0.1 mm 2 mps 716 mmHg 37%
14:00 +34°C° 0.1 mm 2 mps 716 mmHg 38%
15:00 +34°C° 0.1 mm 2 mps 715 mmHg 40%
16:00 +30°C° 0.2 mm 2 mps 715 mmHg 52%
17:00 +27°C° 0.2 mm 2 mps 716 mmHg 64%
18:00 +25°C° 0.2 mm 2 mps 716 mmHg 76%
19:00 +24°C° 0.4 mm 1 mps 716 mmHg 80%
20:00 +24°C° 0.4 mm 1 mps 717 mmHg 85%
21:00 +23°C° 0.4 mm 1 mps 717 mmHg 89%
22:00 +23°C° 0.4 mm 1 mps 717 mmHg 90%
23:00 +23°C° 0.4 mm 1 mps 717 mmHg 90%

Tomorrow, 20 April, Tuesday

Time Temperature Precipitation Wind Pressure Humidity
00:00 +23°C° 0.4 mm 1 mps 717 mmHg 91%
01:00 +23°C° 0.2 mm 1 mps 716 mmHg 92%
02:00 +22°C° 0.2 mm 1 mps 716 mmHg 93%
03:00 +22°C° 0.2 mm 1 mps 716 mmHg 94%
04:00 +22°C° 0 mm 1 mps 716 mmHg 95%
05:00 +22°C° 0 mm 1 mps 716 mmHg 96%
06:00 +22°C° 0 mm 1 mps 716 mmHg 97%
07:00 +24°C° 0.1 mm 1 mps 717 mmHg 87%
08:00 +25°C° 0.1 mm 1 mps 718 mmHg 78%
09:00 +27°C° 0.1 mm 1 mps 718 mmHg 69%
10:00 +29°C° 0.2 mm 1 mps 718 mmHg 60%
11:00 +31°C° 0.2 mm 1 mps 718 mmHg 51%
12:00 +34°C° 0.2 mm 2 mps 717 mmHg 41%
13:00 +34°C° 0 mm 2 mps 716 mmHg 41%
14:00 +34°C° 0 mm 2 mps 716 mmHg 41%
15:00 +32°C° 0 mm 2 mps 715 mmHg 40%
16:00 +31°C° 0 mm 2 mps 715 mmHg 46%
17:00 +29°C° 0 mm 2 mps 715 mmHg 52%
18:00 +28°C° 0 mm 2 mps 715 mmHg 58%
19:00 +26°C° 0.1 mm 2 mps 715 mmHg 66%
20:00 +25°C° 0.1 mm 2 mps 716 mmHg 74%
21:00 +24°C° 0.1 mm 1 mps 716 mmHg 82%
22:00 +23°C° 0.5 mm 1 mps 716 mmHg 85%
23:00 +23°C° 0.5 mm 1 mps 716 mmHg 89%

Day after tomorrow, 21 April, Wednesday

Time Temperature Precipitation Wind Pressure Humidity
00:00 +22°C° 0.5 mm 1 mps 716 mmHg 93%
01:00 +22°C° 0.3 mm 1 mps 716 mmHg 94%
02:00 +22°C° 0.3 mm 1 mps 716 mmHg 95%
03:00 +22°C° 0.3 mm 1 mps 715 mmHg 96%
04:00 +22°C° 0.1 mm 1 mps 716 mmHg 96%
05:00 +22°C° 0.1 mm 1 mps 716 mmHg 96%
06:00 +22°C° 0.1 mm 1 mps 716 mmHg 96%
07:00 +23°C° 0 mm 1 mps 717 mmHg 90%
08:00 +24°C° 0 mm 1 mps 718 mmHg 84%
09:00 +26°C° 0 mm 2 mps 718 mmHg 77%
10:00 +28°C° 0.1 mm 2 mps 718 mmHg 67%
11:00 +30°C° 0.1 mm 2 mps 717 mmHg 56%
12:00 +33°C° 0.1 mm 3 mps 717 mmHg 45%
13:00 +31°C° 0 mm 3 mps 716 mmHg 46%
14:00 +30°C° 0 mm 3 mps 716 mmHg 47%
15:00 +30°C° 0 mm 3 mps 715 mmHg 48%
16:00 +29°C° 0 mm 3 mps 715 mmHg 51%
17:00 +28°C° 0 mm 3 mps 716 mmHg 54%
18:00 +27°C° 0 mm 2 mps 716 mmHg 57%
19:00 +26°C° 0 mm 2 mps 716 mmHg 61%
20:00 +25°C° 0 mm 1 mps 717 mmHg 64%
21:00 +24°C° 0 mm 1 mps 717 mmHg 68%
22:00 +23°C° 0 mm 1 mps 717 mmHg 72%
23:00 +23°C° 0 mm 1 mps 717 mmHg 75%

22 April, Thursday

Time Temperature Precipitation Wind Pressure Humidity
00:00 +22°C° 0 mm 1 mps 717 mmHg 79%
01:00 +22°C° 0 mm 1 mps 717 mmHg 82%
02:00 +21°C° 0 mm 1 mps 717 mmHg 86%
03:00 +21°C° 0 mm 1 mps 716 mmHg 89%
04:00 +21°C° 0 mm 1 mps 717 mmHg 91%
05:00 +19°C° 0 mm 0 mps 717 mmHg 93%
06:00 +18°C° 0 mm 0 mps 717 mmHg 95%
07:00 +23°C° 0 mm 1 mps 718 mmHg 83%
08:00 +26°C° 0 mm 1 mps 718 mmHg 71%
09:00 +28°C° 0 mm 1 mps 719 mmHg 59%
10:00 +31°C° 0 mm 1 mps 718 mmHg 50%
11:00 +33°C° 0 mm 1 mps 718 mmHg 40%
12:00 +35°C° 0 mm 1 mps 718 mmHg 31%
13:00 +36°C° 0 mm 2 mps 717 mmHg 29%
14:00 +37°C° 0 mm 2 mps 716 mmHg 27%
15:00 +37°C° 0 mm 3 mps 715 mmHg 25%
16:00 +35°C° 0 mm 3 mps 715 mmHg 30%
17:00 +33°C° 0 mm 3 mps 715 mmHg 36%
18:00 +29°C° 0 mm 3 mps 716 mmHg 42%
19:00 +28°C° 0 mm 2 mps 716 mmHg 46%
20:00 +27°C° 0 mm 1 mps 717 mmHg 50%
21:00 +26°C° 0 mm 1 mps 717 mmHg 55%
22:00 +26°C° 0 mm 1 mps 717 mmHg 57%
23:00 +25°C° 0 mm 1 mps 717 mmHg 59%

23 April, Friday

Time Temperature Precipitation Wind Pressure Humidity
00:00 +23°C° 0 mm 0 mps 717 mmHg 61%
01:00 +22°C° 0 mm 0 mps 717 mmHg 64%
02:00 +21°C° 0 mm 0 mps 717 mmHg 67%
03:00 +21°C° 0 mm 0 mps 717 mmHg 70%
04:00 +20°C° 0 mm 0 mps 717 mmHg 72%
05:00 +20°C° 0 mm 0 mps 717 mmHg 74%
06:00 +20°C° 0 mm 0 mps 718 mmHg 75%
07:00 +24°C° 0 mm 1 mps 718 mmHg 67%
08:00 +27°C° 0 mm 1 mps 719 mmHg 58%
09:00 +30°C° 0 mm 2 mps 719 mmHg 50%
10:00 +32°C° 0 mm 1 mps 719 mmHg 43%
11:00 +34°C° 0 mm 1 mps 718 mmHg 36%
12:00 +36°C° 0 mm 1 mps 718 mmHg 29%
13:00 +36°C° 0 mm 1 mps 717 mmHg 26%
14:00 +37°C° 0 mm 2 mps 716 mmHg 24%
15:00 +38°C° 0 mm 2 mps 716 mmHg 22%
16:00 +35°C° 0 mm 1 mps 715 mmHg 25%
17:00 +32°C° 0 mm 1 mps 715 mmHg 29%
18:00 +30°C° 0 mm 1 mps 715 mmHg 32%
19:00 +29°C° 0 mm 1 mps 716 mmHg 35%
20:00 +28°C° 0 mm 1 mps 716 mmHg 38%
21:00 +27°C° 0 mm 1 mps 716 mmHg 41%
22:00 +27°C° 0 mm 1 mps 717 mmHg 43%
23:00 +27°C° 0 mm 1 mps 717 mmHg 45%

24 April, Saturday

Time Temperature Precipitation Wind Pressure Humidity
00:00 +26°C° 0 mm 1 mps 717 mmHg 48%
01:00 +26°C° 0 mm 1 mps 717 mmHg 51%
02:00 +25°C° 0 mm 1 mps 717 mmHg 54%
03:00 +25°C° 0 mm 1 mps 716 mmHg 58%
04:00 +24°C° 0 mm 1 mps 717 mmHg 63%
05:00 +24°C° 0 mm 1 mps 717 mmHg 67%
06:00 +23°C° 0 mm 1 mps 717 mmHg 72%
07:00 +25°C° 0 mm 1 mps 718 mmHg 65%
08:00 +28°C° 0 mm 1 mps 718 mmHg 57%
09:00 +30°C° 0 mm 1 mps 719 mmHg 50%
10:00 +32°C° 0 mm 1 mps 718 mmHg 44%
11:00 +35°C° 0 mm 1 mps 718 mmHg 37%
12:00 +37°C° 0 mm 1 mps 718 mmHg 30%
13:00 +37°C° 0 mm 1 mps 717 mmHg 28%
14:00 +37°C° 0 mm 1 mps 716 mmHg 26%
15:00 +39°C° 0 mm 1 mps 715 mmHg 24%
16:00 +36°C° 0 mm 1 mps 715 mmHg 27%
17:00 +34°C° 0 mm 1 mps 715 mmHg 30%
18:00 +32°C° 0 mm 1 mps 714 mmHg 33%
19:00 +31°C° 0 mm 1 mps 715 mmHg 35%
20:00 +30°C° 0 mm 1 mps 715 mmHg 36%
21:00 +30°C° 0 mm 1 mps 715 mmHg 38%
22:00 +29°C° 0 mm 1 mps 716 mmHg 40%
23:00 +28°C° 0 mm 1 mps 716 mmHg 41%
Show more